KAITUO 1B
1 40912U 15049P   18052.77687763  .00001270  00000-0  64739-4 0  9995
2 40912  97.4514  61.7530 0017073  56.6730  28.7660 15.18458264134152
TIANWANG 1C (TW-1C)
1 40926U 15051B   18053.41497574  .00008435  00000-0  16774-3 0  9999
2 40926  97.1971  96.3476 0010006 347.5495 137.4610 15.47143945135550
TIANWANG 1B (TW-1B)
1 40927U 15051C   18053.34684948  .00008120  00000-0  16821-3 0  9999
2 40927  97.2071  96.1767 0010436   0.4278 128.1914 15.45957111135465
TIANWANG 1A (TW-1A)
1 40928U 15051D   18052.88569823 +.00003598 +00000-0 +98165-4 0  9998
2 40928 097.1988 089.1164 0013102 026.3389 098.4100 15.38002258135054
LAPAN A2
1 40931U 15052B   18051.13821465 +.00000731 +00000-0 +12871-4 0  9999
2 40931 005.9978 264.7930 0012893 150.7566 209.3364 14.76565782129674
LQSAT
1 40958U 15057A   18053.36628222  .00000055  00000-0  16337-4 0  9996
2 40958  97.9516 128.9744 0018032 350.0993   9.9858 14.73017023127943
CHUBUSAT 2
1 41338U 16012B   18053.12169684  .00000355  00000-0  21119-4 0  9994
2 41338  31.0041 324.6832 0013731  13.5008 346.5992 14.99922784110544
CHUBUSAT 3
1 41339U 16012C   18053.14997996  .00000401  00000-0  24565-4 0  9992
2 41339  31.0114 323.2664 0013542  20.9959 339.1228 15.00114774110535
OUFTI-1
1 41458U 16025C   18053.37666026  .00002065  00000-0  11153-3 0  9996
2 41458  98.1481 110.0326 0171536 172.2895 188.1028 15.04261663100176
E-STAR-2
1 41459U 16025D   18052.76537046 +.00002948 +00000-0 +15768-3 0  9994
2 41459 098.1501 109.2692 0172528 174.9512 185.3466 15.04033736100075
AAUSAT 4
1 41460U 16025E   18053.38008812  .00002067  00000-0  11137-3 0  9997
2 41460  98.1428 110.2530 0163679 169.5114 190.9603 15.05308109100214
NUSAT 1
1 41557U 16033B   18053.31560379  .00001253  00000-0  48522-4 0  9992
2 41557  97.4429 137.7289 0013432 197.3594 162.7188 15.28010459 96617
BEESAT 4
1 41619U 16040W   18052.74801986  .00001332  00000-0  61783-4 0  9999
2 41619  97.4302 117.4303 0010083 275.5202  84.4883 15.21759081 80532
PRATHAM
1 41783U 16059A   18053.43477966  .00000032  00000-0  15476-4 0  9999
2 41783  98.1334 116.7629 0034939  95.9516 264.5670 14.62901653 75186
ALSAT 1N
1 41789U 16059G   18053.35175901  .00000082  00000-0  24748-4 0  9997
2 41789  98.1337 117.6733 0029886  88.9658 271.4986 14.64128510 75211
NAYIF 1
1 42017U 17008BX  18052.88405037 +.00001436 +00000-0 +62151-4 0  9994
2 42017 097.4628 118.5710 0008005 071.3523 288.8583 15.24052523056506
LILACSAT-1
1 42725U 98067ME  18053.36167273  .00016061  00000-0  17154-3 0  9997
2 42725  51.6364 221.4236 0005080 163.3966 196.7196 15.64077879 42520
MAX VALIER SAT
1 42778U 17036P   18052.93309180 +.00000906 +00000-0 +43826-4 0  9996
2 42778 097.4191 114.4846 0014341 111.6359 248.6406 15.21045520036989
